Wind_Speed
21 22 22 23 23 23 24 24 24 24 24 25 25 25 25 25 25 25 25 25 25 25 26 27 28 28 29 29 29 27 27 27 26 27 28 29 29 29 28 27 26 26 26 25 25 23 21 21 20 21 21 22 24 23 23 26 27 30 34 36 40 44 46 44 39 35 30 25 20 15 13 16 21 24 27 28 26 26 25 27 32 37 38 36 31 29 31 34
22 23 23 24 24 24 24 24 25 25 25 25 25 25 25 25 25 25 25 25 25 25 26 27 27 28 29 29 28 27 27 26 25 26 27 28 27 27 26 25 24 23 22 21 21 20 18 17 20 22 24 23 22 21 22 26 28 32 35 37 42 45 45 41 36 35 32 27 21 18 18 18 19 21 25 26 27 30 29 27 30 34 37 38 33 28 33 38
23 23 24 24 24 24 25 25 26 26 26 26 26 26 26 25 25 25 25 25 25 25 26 26 27 27 28 29 28 27 26 25 26 25 24 24 24 24 23 22 21 20 18 16 17 17 14 14 19 22 24 23 21 19 20 24 27 32 35 39 44 43 42 39 36 35 34 32 27 25 25 25 23 23 24 23 24 27 28 29 29 31 32 34 35 33 35 40
23 24 24 25 25 25 26 26 26 26 26 26 26 26 26 26 26 25 25 25 25 26 26 26 27 27 28 29 27 26 26 25 24 21 19 20 20 19 19 18 16 14 13 11 11 12 11 13 17 21 23 23 21 18 18 20 23 29 35 41 42 39 39 39 36 35 33 33 33 31 29 29 28 28 28 25 26 28 25 24 24 27 28 26 29 35 42 49
24 25 25 26 26 27 27 27 27 27 27 27 27 26 26 26 26 26 25 25 26 26 26 26 27 26 27 28 27 25 25 24 21 17 16 17 16 15 14 12 11 10 9 8 7 8 9 11 16 20 23 22 21 20 19 18 18 24 32 38 40 37 37 37 35 33 29 29 31 33 33 32 31 31 31 29 31 32 26 20 16 21 26 25 27 38 50 59
25 26 26 27 27 27 27 27 27 27 27 27 27 26 26 26 26 26 26 26 26 26 26 26 26 26 26 27 26 25 22 20 18 15 13 13 11 11 10 9 8 7 6 6 6 7 7 10 14 18 21 21 20 20 20 17 15 21 27 30 32 31 32 35 35 33 29 26 26 29 33 34 33 32 31 29 31 33 31 25 16 15 22 27 31 41 55 65
26 27 27 27 27 27 28 28 28 28 27 27 27 27 26 27 26 26 26 26 26 25 26 25 25 25 25 26 25 22 20 16 15 12 9 9 8 8 7 7 7 6 6 5 5 6 7 10 12 15 18 19 18 19 19 18 17 22 27 28 28 26 26 27 27 27 26 25 26 27 31 33 33 32 31 31 30 30 34 32 22 16 20 29 35 45 57 64
27 27 27 27 27 28 28 28 28 27 27 27 27 27 27 27 27 27 27 26 26 25 25 25 25 24 23 23 22 20 17 13 11 10 8 8 7 7 6 6 7 6 6 6 5 6 8 9 10 12 13 11 12 15 17 19 21 22 25 27 27 27 25 22 22 24 24 24 25 28 33 34 33 33 35 36 33 31 33 34 28 21 20 26 31 40 50 57
28 28 27 27 28 28 28 28 27 27 27 27 27 27 27 27 27 27 27 26 25 24 24 25 23 22 20 20 19 17 16 11 8 8 6 5 5 5 5 5 6 6 6 6 6 7 8 9 11 12 9 8 12 14 15 18 21 22 22 22 24 26 25 25 25 26 27 27 26 30 35 35 34 34 34 36 35 33 34 36 33 27 22 19 18 19 25 40
28 28 28 28 28 28 28 27 27 27 28 28 28 28 28 28 28 27 26 26 25 24 24 23 21 19 18 17 15 14 14 9 5 5 3 3 3 5 5 4 5 5 6 6 8 9 10 11 12 12 8 11 15 15 16 19 21 22 23 23 24 24 25 27 26 26 29 31 32 35 37 37 36 34 33 33 32 32 36 37 35 32 27 19 15 9 8 23
29 28 28 28 28 28 27 27 28 28 29 29 29 29 28 28 27 27 27 26 24 24 23 20 18 16 15 14 12 11 12 8 3 1 3 4 5 6 7 6 5 5 5 6 8 10 11 14 14 14 10 11 15 16 18 21 23 24 26 27 27 25 24 26 25 23 22 25 29 35 39 40 40 37 33 30 30 32 36 38 36 34 33 24 19 14 9 14
29 28 28 28 28 28 28 28 29 29 30 30 30 29 28 28 28 27 26 25 24 23 20 17 15 13 12 11 9 10 10 9 5 3 3 6 11 12 10 8 6 4 3 3 5 7 10 15 16 16 12 12 15 16 18 21 23 25 25 26 28 28 28 27 25 21 19 20 23 28 35 40 41 40 35 31 34 36 37 40 39 36 37 32 25 20 16 12
29 29 28 28 28 28 28 29 30 30 31 31 30 30 29 29 28 26 24 24 23 21 17 14 13 11 9 8 8 9 10 9 8 6 7 12 18 16 10 9 8 4 2 4 4 5 9 14 16 17 14 13 15 16 18 18 19 23 23 22 25 29 31 29 26 23 22 20 19 22 29 38 41 40 39 37 38 39 40 42 42 40 40 36 32 28 24 17
29 29 28 28 28 28 28 29 30 31 31 31 31 30 30 29 26 25 23 22 20 17 14 12 10 7 7 9 9 9 8 8 8 10 12 15 17 15 8 8 9 4 2 4 4 3 5 11 14 16 16 14 16 18 20 19 18 19 21 23 22 24 30 31 27 25 25 23 21 21 26 37 42 41 43 42 37 34 39 42 41 42 43 41 39 36 32 25
29 29 29 28 28 28 29 30 31 31 31 31 31 30 28 27 25 23 22 20 17 15 12 10 8 5 8 10 10 11 11 9 11 14 15 13 12 14 13 10 8 6 3 1 3 5 5 9 13 15 16 16 16 17 20 20 22 20 19 22 20 20 26 31 31 27 26 26 25 22 24 35 41 39 42 45 38 30 34 41 38 40 43 43 41 38 38 34
29 29 29 28 28 29 29 30 31 31 31 30 30 29 28 25 23 21 20 18 15 14 13 8 5 4 7 8 9 10 12 12 14 17 18 15 12 13 15 16 16 13 9 5 3 3 6 9 11 14 15 17 16 15 17 19 20 20 18 21 22 21 22 25 32 31 27 28 29 27 29 39 41 32 30 33 33 28 31 37 34 35 38 40 38 33 37 39
29 29 29 29 29 29 29 30 31 32 32 30 28 27 25 23 20 18 18 18 15 13 13 8 4 1 1 5 8 8 12 15 18 20 20 17 15 14 14 16 17 16 15 12 9 7 8 10 11 13 14 16 16 14 15 16 16 17 17 18 20 21 21 22 27 25 20 21 25 28 31 38 37 28 22 20 20 19 24 30 27 27 29 30 30 26 31 38
30 29 29 29 29 29 30 31 32 32 32 31 28 25 22 19 18 18 16 16 15 13 11 7 5 2 2 7 8 8 12 16 18 19 18 16 16 16 14 14 15 16 16 14 13 11 10 12 13 14 14 15 15 12 14 15 15 16 16 17 19 21 21 22 24 20 16 20 24 26 30 35 33 29 26 20 17 16 18 24 24 23 22 23 24 22 25 33
30 30 29 28 29 29 30 32 33 33 31 30 28 25 21 15 15 17 16 15 14 13 11 7 8 8 7 8 8 10 14 14 17 19 17 16 17 16 15 14 14 14 14 13 14 13 11 14 15 16 18 18 16 15 16 15 15 17 19 22 25 27 27 25 26 24 20 25 26 26 30 32 31 31 31 26 24 21 18 20 22 20 19 18 17 17 22 27
30 29 29 29 29 29 31 32 33 33 32 30 26 23 20 15 15 16 13 16 17 15 14 11 10 11 11 12 10 14 17 14 18 20 15 13 15 16 15 14 13 14 15 13 15 14 12 14 17 20 21 20 20 19 19 18 17 19 22 25 27 31 34 31 30 29 22 24 26 24 28 29 28 31 34 32 29 24 20 21 23 21 18 17 15 14 20 23
29 29 28 28 29 29 31 32 33 33 32 30 26 22 21 20 21 18 13 16 19 16 15 15 13 12 14 15 13 18 21 19 20 16 11 10 12 14 15 15 13 15 17 16 16 16 15 20 23 22 21 21 21 21 22 22 22 23 23 25 28 30 34 33 33 32 24 23 24 22 25 26 24 26 28 33 32 23 18 22 26 25 21 20 18 17 19 21
29 28 28 28 28 30 32 33 32 32 30 28 24 20 20 20 21 20 13 14 18 16 13 15 16 15 16 18 19 21 21 21 20 14 11 13 16 16 16 15 15 17 19 19 19 19 20 26 26 22 22 22 22 23 23 24 25 27 27 28 29 30 32 33 33 29 21 22 25 23 23 22 18 17 18 29 33 23 17 21 27 27 25 23 22 22 22 21
28 28 27 27 28 30 32 33 32 31 29 25 21 19 19 18 18 17 11 11 15 15 11 13 16 17 18 18 19 19 17 19 20 15 14 16 18 20 21 21 20 21 23 21 22 23 23 26 25 23 23 24 24 25 25 26 27 29 30 31 31 31 29 30 31 27 22 23 28 28 27 25 20 16 17 23 27 25 21 23 27 27 27 26 25 26 26 26
29 27 26 27 28 30 32 32 32 31 27 22 20 20 19 17 15 13 9 9 12 14 11 12 15 17 20 19 17 19 17 17 17 15 18 19 19 20 23 25 23 24 26 25 24 24 26 25 23 23 24 24 24 25 26 28 28 28 29 30 33 32 28 28 29 29 30 29 27 27 27 30 28 24 22 21 21 24 27 28 29 28 28 28 27 27 29 31
29 27 26 27 27 30 31 30 30 29 24 21 20 20 16 14 13 10 9 10 11 11 12 14 15 15 20 20 17 20 17 14 15 15 19 22 21 20 21 24 26 26 25 26 26 26 29 25 21 21 22 22 22 24 26 26 27 27 26 26 28 28 28 27 24 24 28 28 25 18 13 21 31 29 26 25 22 23 27 28 29 28 29 31 30 29 30 31
29 27 26 26 27 30 29 28 27 24 21 20 19 18 14 12 12 8 7 11 13 12 12 13 15 17 21 20 18 19 16 14 15 15 18 22 22 20 21 21 22 22 21 23 23 25 28 23 17 17 18 18 20 23 23 21 24 27 27 24 22 24 25 24 22 18 18 19 20 14 6 13 29 32 29 29 27 26 27 28 28 28 29 30 30 31 32 31
29 28 26 25 27 28 27 26 25 21 18 16 16 15 12 11 11 6 3 7 10 13 13 12 16 21 22 18 17 16 13 13 15 16 22 28 24 20 19 19 19 18 18 20 20 20 22 19 15 16 16 19 22 24 21 18 21 25 25 23 20 20 20 19 19 18 16 18 21 20 14 13 24 34 32 29 30 31 33 33 31 32 30 29 28 31 34 31
28 28 27 27 27 26 25 24 21 18 16 15 14 12 12 11 9 6 3 3 7 13 14 16 18 20 17 13 14 13 10 15 18 21 28 28 20 16 18 18 16 16 15 17 18 16 15 14 12 13 18 22 22 22 22 20 22 23 22 20 19 16 16 17 16 17 17 16 20 26 20 9 19 37 36 30 32 32 37 39 36 36 34 31 30 31 33 30
27 27 27 28 28 26 25 23 20 18 16 16 14 11 11 11 9 6 4 3 10 14 16 20 21 18 14 11 13 13 14 19 22 26 26 19 12 15 18 16 15 16 13 11 14 15 13 12 10 13 19 20 16 16 18 19 21 23 24 23 22 18 17 17 14 18 17 10 18 31 25 10 16 38 40 32 33 33 37 42 40 39 37 35 34 32 32 28
26 26 26 27 28 27 26 24 22 18 16 15 14 13 9 9 12 6 4 9 14 14 21 25 22 18 16 16 17 19 20 21 24 26 21 13 11 15 14 13 16 16 10 9 15 17 14 11 10 14 15 12 12 12 14 16 17 21 23 22 21 18 20 19 14 15 10 8 25 37 27 15 12 30 38 33 34 35 35 38 40 39 39 39 38 33 32 30
25 25 24 26 26 26 26 25 22 19 18 17 15 15 8 8 16 9 2 14 14 16 27 28 23 18 18 20 20 20 22 22 26 29 23 15 12 14 13 15 19 17 14 16 18 15 10 6 7 7 8 8 8 8 11 14 15 18 19 16 13 10 12 15 13 12 4 7 31 34 20 17 13 26 39 36 36 37 36 37 38 38 38 41 41 37 35 32
24 23 23 25 25 25 25 24 22 19 20 19 15 14 7 6 16 12 9 17 13 19 30 27 23 21 18 20 20 21 24 25 28 30 24 16 13 14 16 20 23 20 20 23 22 17 8 1 1 4 7 6 6 10 12 12 11 15 14 10 7 3 3 5 5 5 4 13 30 25 12 14 18 30 42 38 38 39 38 39 38 37 37 38 41 40 39 35
24 22 21 23 23 24 24 23 22 19 19 18 13 14 13 8 12 15 15 17 16 22 27 24 24 21 18 23 24 24 25 26 30 29 22 13 11 15 17 21 22 18 20 24 22 20 12 4 3 7 5 3 7 12 12 10 7 10 12 11 8 3 1 2 3 2 5 17 29 23 13 12 16 29 40 38 38 36 36 38 38 37 36 35 38 40 40 39
23 21 20 22 22 22 22 22 22 19 19 18 13 18 20 13 12 16 15 18 21 24 25 25 25 21 21 25 26 27 28 28 30 29 22 14 11 14 18 20 18 18 23 23 17 16 11 4 5 7 7 9 12 10 8 9 9 8 12 12 12 10 6 4 3 3 3 9 17 15 7 8 14 26 35 35 33 30 30 34 35 37 38 35 35 36 38 41
22 22 21 21 22 21 21 22 21 20 20 18 17 23 24 15 16 18 16 20 24 25 25 24 22 22 24 24 23 27 29 29 31 30 23 16 13 13 18 21 17 19 24 19 16 15 10 11 12 10 10 13 12 8 7 11 9 7 11 13 15 18 16 11 9 10 7 6 11 12 10 14 20 23 27 27 28 27 27 29 33 36 38 38 36 35 37 39
21 21 21 21 22 21 21 21 20 20 19 17 19 25 21 16 18 17 17 21 23 25 24 20 19 22 24 25 25 27 29 29 32 32 25 17 12 12 18 21 16 19 23 19 18 14 10 17 19 10 6 7 6 7 7 10 9 7 10 13 14 17 17 15 11 13 11 6 10 13 15 25 28 26 30 30 29 29 26 27 31 33 35 37 38 38 37 37
21 21 21 22 23 23 22 21 20 20 17 16 20 21 17 16 17 16 18 20 23 25 21 17 18 20 22 24 25 28 31 30 31 33 27 19 13 13 19 18 13 20 25 21 20 16 14 21 19 9 4 6 5 7 10 13 14 15 15 12 11 11 15 14 7 4 5 5 8 12 19 27 22 21 32 34 32 35 33 30 30 30 31 33 35 38 39 39
20 19 20 21 23 24 22 20 20 18 15 16 20 18 15 15 15 17 19 21 25 23 17 16 17 17 21 23 25 29 31 30 33 34 27 19 16 17 15 13 14 20 24 23 24 20 16 20 22 15 7 9 12 16 19 18 18 21 21 16 12 9 10 13 9 3 3 3 5 8 17 27 27 28 34 33 32 35 33 31 33 33 34 34 33 34 38 42
21 19 20 21 23 24 22 19 19 18 15 18 21 18 16 16 15 18 19 21 24 21 17 16 14 15 18 20 25 30 30 31 34 32 23 19 21 18 10 13 20 20 20 23 23 22 17 15 20 21 15 18 23 21 19 19 16 18 20 21 23 19 13 15 16 10 5 4 6 5 7 18 30 33 33 31 29 29 28 29 30 31 35 38 36 35 38 44
22 20 20 22 24 24 22 18 17 19 19 18 18 16 16 15 16 18 20 23 22 19 17 14 13 16 18 21 26 29 30 32 31 26 21 22 26 19 12 17 23 18 17 20 20 23 22 14 18 28 28 27 28 23 22 23 18 16 19 21 23 23 19 17 20 21 14 5 4 4 5 20 32 29 25 26 22 23 27 30 30 29 31 37 40 40 40 44
22 22 21 20 22 25 23 17 16 21 21 16 14 16 16 15 17 18 22 24 20 18 16 13 15 18 19 23 27 28 31 30 26 22 21 24 26 21 18 18 18 18 20 21 19 20 20 17 24 33 33 31 29 24 24 27 23 18 20 23 23 23 20 13 11 21 25 16 11 6 7 27 41 31 23 22 18 20 27 30 32 31 30 32 38 41 43 44
23 23 21 17 19 24 20 15 16 21 21 16 13 16 18 17 18 19 22 23 18 17 15 14 18 20 20 25 27 27 30 28 26 25 25 26 24 19 20 17 15 18 20 20 20 20 21 21 26 32 33 33 27 16 14 18 20 21 22 27 29 26 24 18 8 11 18 19 21 15 10 28 44 32 20 15 14 19 26 31 33 34 34 34 35 38 43 45
23 23 21 17 18 22 18 15 18 19 19 16 10 15 21 20 18 18 20 20 18 18 17 17 20 21 22 25 26 27 28 27 28 28 28 28 23 17 17 16 14 15 16 18 20 21 21 18 22 30 35 32 22 12 11 12 13 18 22 26 30 31 33 31 22 17 15 16 17 9 8 29 44 38 29 22 17 18 21 27 32 33 35 36 38 40 41 44
23 22 22 17 17 21 19 18 20 17 18 15 9 16 24 20 16 17 18 19 20 19 18 19 21 22 24 26 26 27 26 24 27 30 29 28 23 17 15 15 15 14 15 18 20 22 20 18 20 24 24 20 15 10 12 16 16 21 28 30 28 29 31 33 33 27 20 21 20 8 11 33 37 31 30 26 24 24 22 23 27 29 30 32 39 44 42 42
24 21 22 17 16 22 22 19 18 17 18 16 12 18 24 20 15 14 16 19 20 18 17 19 22 24 25 26 26 27 27 26 27 28 30 28 21 17 15 15 15 15 15 17 19 22 24 25 25 20 11 8 11 14 20 28 30 31 35 36 35 31 27 28 32 27 18 19 22 18 26 42 35 25 27 28 29 35 34 30 28 27 27 27 34 44 46 44
26 22 22 17 14 18 19 16 16 17 18 17 15 19 22 20 15 13 15 19 19 18 18 20 24 26 27 28 28 27 30 30 29 28 29 27 23 20 16 14 16 18 18 19 21 25 26 29 31 26 21 22 27 31 36 38 37 36 34 33 33 33 32 28 27 28 26 23 27 35 41 46 41 33 34 37 37 39 37 33 29 27 26 26 31 41 47 47
27 24 24 21 15 16 17 15 17 19 17 17 18 19 22 21 16 13 15 17 18 20 20 21 24 26 28 29 28 28 30 31 29 28 25 23 22 21 15 12 17 22 23 22 25 27 27 30 33 31 32 34 35 38 39 35 33 34 32 31 32 33 32 26 26 32 31 20 23 36 34 35 44 41 35 35 33 31 29 25 24 24 20 20 27 36 45 48
27 24 24 23 20 19 19 17 18 19 17 17 18 19 22 21 17 15 16 18 18 19 21 23 24 26 26 26 26 28 31 32 30 25 21 19 21 21 18 16 20 26 28 27 29 29 28 31 35 35 37 36 33 35 36 34 34 30 26 29 38 41 34 22 19 25 26 20 23 33 28 30 40 35 24 21 19 17 16 15 16 16 15 19 24 32 42 47
27 24 22 22 20 20 19 17 19 19 18 17 18 19 22 20 16 14 15 18 18 18 20 24 26 27 25 22 24 27 29 30 29 22 17 19 19 20 21 21 21 26 30 30 32 31 29 32 36 36 36 32 31 33 33 31 31 25 23 34 46 45 33 26 31 30 16 16 20 25 27 25 22 17 12 9 6 4 4 7 9 8 12 18 21 27 38 43
28 25 22 19 18 19 18 17 19 18 17 17 18 19 20 18 15 13 14 16 18 18 20 24 27 29 26 22 24 26 23 21 22 18 16 19 18 16 19 21 24 27 29 30 33 32 29 31 33 33 34 32 33 33 30 25 21 21 32 48 53 47 35 30 39 44 32 24 21 17 19 16 8 7 8 5 6 5 7 6 6 6 9 16 21 26 33 39
29 27 23 20 19 19 18 18 19 18 17 18 19 20 20 17 16 14 13 13 14 17 21 25 29 30 27 26 27 24 18 15 15 12 11 14 13 12 14 19 24 27 30 32 32 31 30 31 32 31 30 30 36 36 31 25 17 23 46 60 55 47 40 33 37 45 41 35 29 21 18 15 9 6 6 10 11 9 9 6 4 5 9 17 24 27 29 33
27 26 24 21 20 20 19 19 19 18 19 20 20 20 19 16 13 11 11 10 12 16 19 23 27 29 28 30 28 24 20 17 11 6 6 7 7 9 12 16 20 25 29 31 31 32 32 30 31 28 23 28 38 36 30 25 17 25 50 60 52 46 42 36 39 47 47 42 38 31 21 13 8 7 8 11 12 11 9 4 3 6 11 15 18 20 23 29
Wind_Direction
343 341 339 337 335 333 330 328 326 324 322 321 319 319 317 316 315 314 313 313 312 310 309 307 307 306 304 303 303 303 302 301 300 299 297 295 292 290 288 286 282 279 277 276 273 267 260 252 242 237 231 228 233 231 222 221 218 214 212 214 223 227 232 236 235 235 239 244 243 242 245 253 249 237 244 247 244 253 249 240 242 242 239 235 235 236 234 234
342 340 338 336 334 333 331 330 328 326 324 323 321 320 319 318 317 316 316 315 314 312 310 308 307 306 305 304 304 305 303 302 301 298 296 294 292 290 287 284 282 278 275 273 272 268 260 247 236 231 228 223 225 227 223 222 217 216 216 218 226 232 235 237 236 236 238 237 224 222 237 251 261 250 249 254 253 253 248 240 237 237 240 238 233 231 232 236
342 340 338 336 335 334 332 330 329 327 326 325 324 323 322 320 319 318 318 317 314 312 311 309 308 307 305 304 306 306 304 304 302 300 298 294 291 290 288 287 285 282 278 273 269 268 261 239 232 229 227 222 217 215 218 222 219 219 219 222 231 237 237 236 237 238 238 239 228 224 242 252 258 259 255 260 263 256 248 245 241 236 238 239 235 231 227 233
342 341 338 336 334 333 332 330 329 328 327 326 325 324 323 321 320 320 319 318 315 314 312 311 310 308 306 306 308 307 305 305 303 303 301 294 291 289 288 288 288 287 286 279 270 266 252 227 223 224 225 223 214 207 210 217 220 223 222 227 236 238 238 237 237 240 240 243 238 230 242 252 254 262 258 256 268 266 255 251 247 241 238 235 229 221 214 215
343 341 338 335 334 334 333 331 330 329 329 328 327 326 324 323 322 322 321 319 317 316 315 313 311 310 308 307 309 307 307 307 305 304 299 292 291 288 286 290 292 293 290 284 271 252 240 224 219 222 226 228 221 216 216 215 223 232 228 231 238 240 243 243 240 243 244 246 246 239 242 251 256 262 261 258 269 269 257 251 248 243 237 229 220 211 207 204
342 340 337 336 335 335 334 333 333 332 332 330 329 328 327 325 325 324 322 320 319 318 316 314 312 311 309 308 309 307 307 308 304 304 299 291 289 286 290 295 295 294 292 287 270 245 228 219 218 223 229 235 231 226 224 216 225 245 240 236 242 246 250 250 247 249 249 248 248 244 243 251 259 262 264 263 269 268 258 251 243 243 231 223 220 209 206 203
342 340 338 337 337 336 335 336 335 335 333 331 331 330 329 328 326 325 323 322 321 319 317 314 312 312 310 308 307 306 308 309 305 307 302 290 290 291 296 297 293 294 293 290 275 249 222 217 219 224 232 236 235 231 227 221 226 245 247 243 247 252 254 251 251 252 252 251 245 243 245 252 261 264 264 262 266 265 260 255 243 239 225 215 218 213 209 204
342 341 340 339 339 338 338 338 337 336 335 334 334 333 331 329 328 326 324 324 322 320 317 315 314 313 311 307 307 308 310 312 312 314 305 295 300 300 298 296 294 293 289 285 272 249 227 221 219 217 222 226 241 241 231 230 232 239 249 250 251 253 253 251 257 258 258 258 250 247 251 256 261 265 265 260 263 264 260 256 244 233 223 213 219 222 217 208
343 342 341 341 340 340 340 340 339 339 337 337 336 334 333 331 329 327 326 326 324 321 319 317 316 314 313 309 310 311 309 316 319 310 308 311 322 320 315 315 307 294 282 271 245 240 229 221 215 208 214 231 252 251 234 241 244 244 254 257 254 253 252 255 260 260 258 256 251 251 255 256 257 260 262 260 263 265 258 256 247 232 224 220 224 237 228 214
344 344 343 343 342 342 342 342 341 341 340 339 338 336 335 332 330 329 328 328 325 322 320 318 319 319 319 313 316 316 309 319 320 297 326 4 353 337 334 333 321 309 287 261 232 229 217 210 206 200 227 251 252 251 241 251 256 252 259 259 253 253 255 256 255 254 255 253 249 252 255 256 256 256 258 258 261 263 256 255 251 234 225 226 224 234 235 218
346 346 346 345 344 344 344 343 343 343 342 340 339 338 336 333 331 330 329 328 325 323 322 322 324 326 326 322 330 334 319 323 333 329 24 18 2 348 343 340 329 324 301 267 240 234 216 203 199 200 227 250 251 254 246 250 256 254 259 260 257 259 262 259 255 259 259 254 251 252 254 254 255 253 253 258 260 261 257 255 254 237 226 225 225 230 222 215
348 348 348 347 346 345 345 344 344 344 343 341 340 338 337 334 331 330 329 327 325 325 325 325 329 336 341 339 354 2 344 338 340 11 26 356 349 338 327 324 317 304 285 269 250 247 226 206 202 207 222 240 253 261 249 246 252 252 256 264 263 261 261 254 252 260 254 252 255 253 253 251 252 252 254 260 256 255 255 255 256 243 229 224 223 232 234 235
349 349 349 348 347 346 345 344 344 344 343 342 341 339 337 334 331 331 330 328 326 327 326 327 336 351 1 7 14 4 355 351 342 351 1 351 352 344 314 293 299 296 295 314 293 260 236 218 211 213 221 240 254 256 250 243 246 250 251 261 268 265 259 248 248 259 252 251 257 257 260 256 253 255 257 260 254 252 253 254 258 249 236 230 229 237 240 245
350 350 349 348 347 345 344 344 344 344 344 343 342 340 337 335 334 335 333 331 330 329 327 328 342 14 38 29 19 2 6 24 10 7 4 357 1 4 345 293 284 279 320 353 348 338 262 241 233 223 223 244 256 254 254 248 246 255 255 254 264 270 261 247 246 259 255 247 246 256 267 259 256 259 259 259 256 256 255 253 257 254 243 237 238 246 245 243
350 350 349 348 346 345 344 343 343 343 344 344 343 340 339 338 339 339 335 333 332 329 324 327 342 46 62 31 22 11 11 28 16 7 7 1 3 9 6 347 326 318 319 358 17 13 332 276 260 245 238 249 259 262 264 257 251 259 269 265 262 270 269 251 242 250 254 247 244 258 269 259 260 264 260 256 254 256 255 251 255 254 248 244 246 252 249 245
350 350 349 347 346 345 344 343 342 343 345 346 345 343 342 342 342 341 336 334 334 328 322 325 345 63 71 31 27 19 5 7 355 350 355 354 354 1 4 358 351 343 327 316 324 347 334 308 281 267 265 264 265 273 279 273 261 256 265 275 270 274 284 265 245 245 256 258 252 258 267 264 265 269 263 253 249 252 249 245 250 252 250 248 250 254 250 247
351 350 349 347 346 345 344 343 342 344 345 348 349 346 344 343 343 346 344 341 342 339 333 330 329 5 68 3 17 17 1 355 341 338 346 346 344 349 354 347 340 334 329 326 321 311 306 302 289 280 281 277 271 275 281 284 280 265 260 273 279 280 287 278 258 249 259 268 258 255 262 264 265 267 263 250 243 249 242 237 243 249 250 249 247 248 247 247
352 351 350 348 347 345 344 343 343 345 347 349 350 348 348 348 347 356 2 358 356 358 355 356 1 0 326 342 3 21 11 357 342 339 345 343 338 336 335 327 319 321 326 321 310 304 292 286 287 282 278 278 277 271 269 275 282 279 275 280 286 285 281 278 270 266 283 288 272 265 268 268 268 267 261 251 245 250 242 235 238 244 248 251 247 239 236 242
353 352 351 349 348 346 344 344 344 346 349 351 350 348 351 357 1 7 18 23 20 17 18 35 43 42 30 8 8 17 15 358 340 338 336 334 328 322 320 313 303 306 315 316 309 303 285 276 276 271 268 275 283 279 272 275 277 279 282 281 281 281 277 274 269 272 295 300 286 277 277 276 277 272 262 257 252 250 252 242 236 239 244 249 246 233 223 229
354 353 351 350 349 347 345 345 345 347 350 352 352 349 352 6 22 28 42 43 35 37 47 61 54 41 27 17 9 8 9 351 337 336 328 321 314 305 306 301 287 291 306 315 314 309 293 272 265 264 270 279 285 285 284 283 278 275 277 276 276 277 276 276 271 269 282 300 296 284 281 284 284 278 266 257 249 245 256 250 237 237 241 239 230 215 213 217
355 354 352 351 349 347 346 346 347 349 351 352 353 355 1 12 18 27 54 51 39 45 52 48 42 35 18 11 9 6 1 340 332 336 322 315 316 301 298 297 285 288 302 306 301 295 280 269 268 271 278 284 285 283 281 276 270 268 272 276 276 274 276 278 274 273 282 297 295 283 286 292 287 283 268 250 241 240 254 247 234 236 239 236 223 206 206 212
355 355 353 352 350 348 347 347 349 351 351 353 355 1 11 18 15 15 37 47 38 40 40 30 29 27 14 10 11 6 353 333 332 339 326 320 320 308 296 292 278 276 289 295 291 282 269 265 269 275 279 279 277 275 272 268 265 265 269 276 276 275 280 279 270 273 284 292 294 288 290 296 287 278 254 233 231 235 252 244 232 234 237 236 227 213 207 211
356 356 355 354 351 350 348 348 349 351 352 353 358 6 16 22 16 14 27 43 37 34 34 23 20 22 16 8 5 358 344 340 345 336 319 311 308 303 291 279 267 266 274 276 276 276 269 265 272 281 282 278 275 272 268 266 265 266 267 270 273 275 281 281 272 275 281 284 293 293 287 283 274 262 239 225 226 229 238 240 234 235 238 238 233 223 214 213
355 357 356 355 353 351 350 350 349 350 353 356 2 7 13 16 15 21 35 48 42 34 30 12 7 19 17 3 355 352 344 347 350 324 307 307 302 297 291 288 286 282 275 264 261 266 266 268 277 283 279 277 276 272 270 269 267 268 268 266 268 271 275 280 279 285 286 278 281 291 289 276 264 259 248 234 230 226 227 235 235 233 236 237 237 233 224 219
355 357 358 356 355 353 352 352 349 349 354 1 6 4 7 12 13 28 48 53 48 36 24 6 1 11 8 0 354 351 342 342 346 322 310 316 312 304 303 307 306 301 289 272 265 267 270 272 275 278 276 272 270 268 266 269 269 268 270 268 268 271 273 277 279 288 292 280 276 296 306 275 264 262 254 245 243 232 226 232 234 232 234 236 237 238 234 230
354 356 358 357 357 356 355 352 350 352 356 4 4 358 3 11 10 27 58 55 49 34 18 7 2 355 353 357 354 345 344 349 342 322 319 328 329 323 319 321 316 311 305 292 279 272 276 279 269 272 284 281 274 270 263 265 269 265 269 274 272 274 275 270 268 278 288 279 279 296 306 279 273 263 251 250 250 238 228 231 233 233 237 236 237 240 239 240
353 355 357 358 359 359 357 353 353 357 2 7 3 359 7 12 13 24 59 58 41 23 9 359 354 347 348 355 351 348 357 351 328 318 328 332 332 331 328 332 327 318 313 304 293 285 289 290 269 261 277 281 278 276 270 266 265 262 268 274 270 274 279 272 264 267 273 274 277 279 270 279 277 259 246 248 250 241 234 233 234 237 237 234 234 238 239 242
353 354 356 358 359 1 360 358 359 1 6 10 9 11 14 13 18 27 69 76 8 0 352 342 344 347 352 355 350 352 347 334 331 335 337 332 332 340 340 341 337 327 320 303 298 310 315 303 279 265 270 275 278 284 284 272 261 259 262 262 259 266 276 275 268 266 272 279 275 267 257 263 269 256 250 253 254 247 239 234 233 236 236 234 235 238 241 244
354 353 355 357 358 1 3 2 5 7 8 7 11 18 17 18 21 28 82 43 353 355 343 334 341 351 359 357 349 347 336 335 342 344 342 339 342 349 346 350 350 341 334 312 313 328 322 301 291 276 270 276 288 299 297 280 265 261 261 259 255 253 259 263 266 268 268 265 261 258 246 228 260 257 253 256 254 248 243 238 234 235 236 237 239 240 244 248
355 354 355 356 358 1 3 4 6 9 8 1 4 15 19 23 24 45 90 4 350 352 346 343 351 358 4 359 345 341 344 347 349 350 353 352 354 358 355 358 359 355 352 332 329 331 317 295 279 269 273 292 306 304 295 286 276 269 267 266 260 252 251 251 253 263 264 239 252 255 241 219 256 264 258 255 251 247 247 245 240 238 238 239 239 239 242 243
355 356 355 356 360 2 4 6 6 7 8 0 359 11 21 28 31 61 51 347 342 345 348 351 357 359 2 359 348 345 352 358 359 0 1 355 357 10 11 5 2 6 7 351 343 344 331 286 252 268 302 316 310 311 309 298 282 267 265 265 264 259 251 251 250 249 236 242 254 256 245 219 229 260 260 257 254 251 250 249 246 243 242 239 236 236 240 240
356 358 356 357 1 3 5 7 7 8 7 2 1 10 26 45 34 36 352 346 352 349 349 351 354 357 360 1 360 358 359 3 5 5 2 357 4 15 16 10 6 7 358 348 347 356 8 106 165 348 340 330 318 323 324 312 283 260 252 245 243 255 254 246 239 233 213 244 254 259 255 225 226 253 261 259 256 254 250 250 248 244 241 238 235 235 239 239
355 358 358 360 3 4 6 6 10 12 6 6 8 13 33 67 35 14 356 357 358 349 349 350 353 357 1 4 4 3 3 5 5 4 4 4 8 16 17 7 5 6 351 342 343 350 3 35 19 357 344 326 317 315 315 317 296 249 231 216 203 182 139 229 227 250 247 251 258 264 263 240 234 250 256 253 252 253 250 249 247 245 242 238 236 236 237 237
355 357 359 2 4 5 6 6 10 11 9 15 16 19 39 60 26 9 6 1 352 347 351 351 350 355 3 6 4 0 1 2 0 1 4 3 4 15 14 2 359 357 351 347 342 342 341 324 351 354 315 299 307 310 301 301 299 260 237 223 219 222 210 208 214 200 231 266 271 269 251 213 224 248 256 255 255 255 251 247 244 243 244 242 239 235 233 235
354 356 358 2 4 5 7 7 8 9 15 22 23 30 45 46 16 10 5 356 349 348 349 345 348 357 2 4 5 1 358 353 352 357 4 3 357 8 7 358 352 350 352 350 341 337 316 306 337 336 296 296 308 312 286 279 282 268 243 230 238 244 235 230 237 238 249 290 275 255 242 236 241 255 260 257 256 252 247 245 241 241 241 240 239 232 229 232
356 356 356 360 4 6 8 7 8 12 20 26 32 40 44 28 14 10 357 352 349 347 346 344 355 2 358 357 359 357 353 348 348 353 1 5 1 4 356 349 347 347 350 350 346 343 302 310 339 344 286 288 309 316 296 274 273 269 242 241 265 268 250 239 244 252 253 271 264 245 250 256 256 260 254 247 249 246 241 240 239 239 238 237 236 232 230 232
357 356 356 359 3 7 8 6 9 16 19 26 39 46 37 18 12 2 352 348 345 345 348 355 5 3 355 352 349 348 346 347 349 350 354 4 8 357 344 342 347 344 346 349 348 342 309 310 331 347 284 252 263 292 291 279 273 265 252 259 286 279 256 246 247 268 238 247 264 237 244 255 252 254 255 249 246 245 244 242 241 239 237 236 235 233 235 238
360 356 356 1 5 7 7 5 12 19 17 27 40 40 28 21 6 352 348 343 343 349 357 6 5 357 353 348 343 345 344 345 349 349 351 360 1 350 340 340 345 340 342 344 338 336 323 306 313 323 286 259 285 290 286 282 269 259 259 267 270 254 238 230 226 251 225 247 285 235 239 250 243 246 258 254 247 247 245 241 240 238 236 236 234 231 234 237
1 357 358 5 7 8 8 7 14 22 22 30 37 29 21 19 2 348 343 341 349 359 10 14 4 353 352 348 345 345 343 343 346 346 349 352 349 349 348 338 335 335 338 337 331 330 325 300 300 309 298 294 305 300 290 285 267 256 259 261 258 252 244 231 226 228 210 223 273 252 238 252 249 254 264 265 258 251 240 235 236 236 234 234 231 228 228 231
1 359 3 8 8 7 10 8 12 24 29 34 34 26 21 10 354 348 345 348 359 9 14 13 2 354 351 350 350 346 342 343 345 347 351 353 351 351 349 336 332 334 332 329 328 326 319 290 281 299 305 304 307 309 306 298 282 258 249 250 251 249 251 254 242 234 228 219 258 254 255 266 266 267 272 272 265 250 238 235 238 237 233 232 231 228 226 226
1 2 7 11 8 8 9 4 9 24 33 40 32 23 21 0 347 353 353 356 7 14 12 7 360 359 353 349 350 346 342 345 351 355 352 355 357 350 340 337 334 330 325 325 332 328 315 292 281 292 299 301 308 316 308 298 290 270 250 246 249 246 248 261 250 236 234 232 239 239 267 278 279 279 276 268 255 243 238 234 236 235 229 228 229 229 227 224
3 3 8 11 11 11 7 1 13 24 31 39 30 19 15 357 350 0 356 355 8 14 12 7 1 0 355 349 348 347 346 348 355 357 350 354 2 353 343 344 332 322 322 327 334 328 317 301 286 285 292 302 317 322 294 285 281 270 258 247 245 245 242 240 239 241 237 235 244 247 257 274 276 278 279 267 239 233 236 235 238 237 232 229 228 228 228 225
5 4 7 10 12 11 4 5 19 24 28 34 23 7 6 357 356 6 359 356 8 14 16 15 7 3 360 354 351 352 352 350 352 356 353 356 2 2 355 347 330 323 325 331 334 329 321 305 291 295 303 311 321 315 295 293 275 268 272 262 250 244 241 240 245 258 259 247 243 241 250 260 265 269 272 267 251 238 236 238 238 235 234 235 233 230 227 226
7 5 7 11 14 9 7 16 21 19 22 27 9 356 1 359 0 8 7 5 10 16 24 23 13 6 2 358 353 354 356 351 349 353 356 356 360 7 1 343 335 334 332 332 332 327 317 300 296 305 311 319 322 311 306 303 291 285 290 290 278 260 247 243 247 255 263 254 240 223 254 257 259 268 269 261 254 255 256 253 247 240 238 238 235 231 227 225
9 8 9 13 14 11 13 20 16 6 11 16 2 354 357 0 5 12 14 13 12 17 21 17 10 3 0 356 351 355 359 353 347 351 354 353 360 12 3 348 350 348 339 336 330 323 312 300 300 297 292 310 303 297 306 306 302 298 296 300 299 287 270 250 241 242 249 249 235 221 244 257 258 261 264 261 258 263 270 270 261 252 246 239 233 230 226 223
6 9 13 15 16 13 13 12 2 357 5 10 1 354 357 5 13 21 23 18 14 11 9 9 7 2 360 355 348 352 359 354 347 349 352 351 358 9 5 0 9 6 358 351 339 328 316 310 312 303 290 295 296 303 317 315 305 300 304 312 313 304 292 267 237 233 240 243 242 240 247 259 264 261 261 266 268 270 275 275 268 261 253 239 228 224 221 219
4 5 9 13 16 11 7 2 357 357 5 7 357 351 359 10 16 21 26 24 15 6 1 4 5 1 359 354 346 347 354 351 346 350 354 353 357 8 12 12 12 8 6 3 352 339 324 323 331 325 318 320 316 320 332 329 314 309 316 327 333 331 317 283 251 251 251 241 251 256 254 262 273 277 277 278 281 281 279 273 265 261 249 225 213 214 215 214
6 5 6 10 10 4 1 357 353 356 2 359 349 348 359 9 12 13 18 21 18 7 357 357 0 358 355 352 346 347 349 347 345 351 358 356 357 7 14 15 12 9 8 5 359 347 331 333 341 336 334 342 340 338 340 333 324 323 329 342 350 354 350 331 309 292 268 248 262 272 271 272 281 294 300 295 297 287 264 239 227 227 208 188 191 200 206 207
7 8 7 8 7 3 359 348 343 351 357 351 344 350 359 2 6 16 17 12 13 11 358 351 352 352 351 351 349 348 347 343 340 346 358 356 354 2 7 9 12 9 6 2 359 353 337 338 347 339 337 353 357 348 345 335 327 331 347 358 359 358 359 2 6 3 327 281 290 292 288 287 292 306 319 319 319 292 240 184 174 172 161 162 172 188 198 201
6 8 6 5 5 6 359 345 342 349 353 349 348 357 1 355 357 20 27 11 4 5 358 349 347 347 347 350 350 346 345 339 331 335 348 347 349 357 358 2 5 4 6 6 5 1 344 341 352 343 335 353 359 350 351 348 338 348 0 2 1 1 2 6 12 15 5 344 341 327 309 318 331 313 323 22 69 49 38 67 95 96 129 157 169 182 190 196
5 4 2 0 3 7 1 351 349 350 350 352 355 358 359 355 355 12 30 24 10 1 356 350 344 341 343 350 351 349 348 340 331 335 339 334 345 2 1 4 3 360 6 13 12 9 355 346 355 348 330 341 355 351 350 353 355 5 4 0 359 359 359 1 10 15 12 5 5 357 338 342 3 355 22 77 83 56 45 61 106 135 159 173 179 182 185 194
5 1 359 358 358 3 3 356 353 351 350 354 357 357 357 356 357 5 17 25 18 3 356 348 340 339 347 354 356 354 346 338 339 345 331 335 13 30 22 20 14 5 8 13 14 14 6 352 354 353 328 333 352 350 343 353 9 6 0 357 355 357 358 2 11 14 16 16 15 13 4 358 20 51 77 91 81 63 67 89 161 173 173 182 189 186 185 193
Height
3144 3142 3141 3139 3137 3135 3133 3132 3130 3128 3126 3124 3123 3121 3119 3118 3116 3114 3112 3111 3109 3107 3104 3102 3101 3099 3097 3096 3095 3095 3094 3093 3092 3090 3088 3087 3085 3084 3084 3083 3083 3082 3082 3081 3081 3082 3083 3084 3084 3084 3084 3085 3086 3088 3091 3091 3092 3093 3091 3089 3085 3083 3083 3085 3089 3091 3093 3095 3098 3100 3101 3102 3103 3105 3105 3106 3107 3106 3107 3108 3109 3108 3110 3113 3117 3120 3121 3122
3143 3141 3139 3138 3136 3134 3132 3130 3128 3126 3124 3122 3121 3119 3117 3115 3113 3112 3110 3108 3106 3104 3102 3100 3098 3096 3094 3093 3093 3092 3091 3090 3089 3087 3085 3083 3082 3081 3080 3080 3080 3080 3080 3079 3078 3078 3080 3081 3081 3081 3080 3082 3083 3085 3088 3088 3090 3089 3087 3085 3081 3080 3082 3085 3088 3090 3092 3093 3096 3097 3098 3099 3099 3101 3102 3103 3103 3103 3105 3105 3105 3105 3107 3111 3116 3118 3118 3118
3142 3140 3138 3136 3134 3132 3130 3128 3126 3124 3122 3120 3119 3117 3115 3113 3111 3109 3107 3106 3103 3101 3099 3097 3096 3094 3092 3090 3090 3089 3088 3087 3085 3084 3083 3081 3079 3078 3077 3077 3076 3076 3076 3077 3076 3076 3077 3078 3078 3078 3078 3079 3080 3082 3084 3085 3086 3086 3086 3082 3078 3080 3082 3084 3087 3088 3090 3092 3093 3093 3094 3095 3096 3097 3098 3100 3100 3100 3102 3103 3103 3104 3105 3108 3112 3114 3114 3114
3141 3139 3137 3135 3133 3131 3129 3127 3125 3122 3120 3118 3116 3114 3112 3110 3108 3107 3105 3103 3101 3099 3097 3095 3093 3091 3089 3087 3087 3086 3084 3084 3083 3082 3080 3078 3077 3076 3075 3075 3074 3074 3074 3074 3074 3074 3075 3076 3076 3077 3077 3077 3078 3079 3080 3082 3083 3083 3082 3078 3077 3081 3081 3083 3085 3086 3088 3090 3090 3091 3091 3092 3093 3094 3095 3096 3096 3096 3099 3101 3102 3103 3102 3103 3106 3108 3106 3106
3140 3138 3136 3133 3131 3129 3127 3125 3123 3121 3118 3116 3114 3112 3110 3108 3106 3104 3103 3101 3099 3097 3094 3092 3090 3089 3087 3085 3084 3083 3082 3081 3080 3080 3078 3077 3076 3075 3074 3073 3072 3072 3072 3072 3072 3073 3073 3074 3075 3075 3076 3076 3077 3078 3078 3080 3081 3081 3079 3077 3078 3081 3080 3081 3084 3085 3086 3088 3088 3089 3089 3089 3090 3091 3092 3093 3093 3092 3095 3099 3100 3100 3100 3100 3100 3100 3098 3095
3139 3137 3134 3132 3130 3127 3125 3123 3121 3119 3116 3114 3112 3110 3108 3106 3104 3102 3100 3098 3096 3094 3092 3090 3088 3086 3084 3082 3081 3081 3080 3079 3078 3078 3076 3075 3074 3073 3072 3072 3071 3071 3071 3071 3071 3072 3072 3073 3073 3074 3075 3075 3076 3076 3077 3079 3080 3078 3077 3077 3078 3080 3080 3080 3082 3083 3085 3086 3085 3086 3087 3087 3087 3087 3088 3090 3090 3089 3091 3094 3098 3098 3098 3098 3096 3094 3091 3087
3138 3135 3133 3131 3128 3126 3123 3121 3119 3117 3115 3112 3110 3109 3106 3104 3102 3100 3098 3096 3094 3092 3089 3088 3086 3084 3082 3080 3079 3078 3078 3077 3076 3076 3074 3073 3073 3072 3071 3071 3070 3070 3070 3070 3070 3071 3071 3071 3072 3073 3074 3074 3075 3075 3076 3078 3078 3077 3075 3076 3077 3078 3079 3079 3080 3081 3082 3083 3083 3084 3084 3084 3084 3084 3085 3086 3087 3087 3087 3090 3095 3096 3095 3095 3093 3089 3085 3082
3137 3134 3132 3129 3127 3124 3122 3120 3118 3115 3113 3111 3109 3107 3104 3102 3100 3097 3095 3093 3091 3089 3087 3085 3083 3082 3080 3078 3077 3076 3076 3076 3075 3074 3073 3072 3071 3071 3070 3070 3069 3069 3069 3069 3069 3070 3070 3071 3072 3072 3072 3073 3074 3074 3075 3076 3075 3074 3074 3074 3075 3076 3076 3077 3078 3079 3079 3080 3081 3081 3080 3080 3081 3081 3080 3081 3083 3084 3084 3085 3091 3094 3093 3092 3089 3085 3082 3084
3136 3133 3131 3128 3126 3123 3121 3118 3116 3114 3112 3109 3107 3105 3103 3100 3098 3095 3093 3091 3089 3087 3085 3083 3081 3079 3078 3076 3075 3074 3074 3074 3074 3073 3072 3071 3071 3070 3069 3069 3068 3068 3068 3068 3068 3069 3069 3070 3071 3071 3071 3071 3071 3072 3073 3073 3072 3072 3072 3073 3073 3073 3074 3075 3075 3076 3076 3077 3078 3077 3075 3076 3077 3077 3076 3077 3080 3080 3081 3082 3086 3090 3090 3090 3088 3085 3085 3087
3135 3132 3130 3127 3124 3122 3119 3117 3115 3113 3110 3108 3105 3103 3101 3098 3096 3093 3091 3089 3086 3084 3082 3081 3079 3078 3076 3075 3074 3073 3072 3073 3073 3072 3072 3071 3070 3070 3069 3068 3068 3067 3067 3067 3067 3067 3068 3069 3070 3070 3069 3069 3069 3070 3071 3071 3070 3070 3070 3070 3069 3070 3070 3071 3071 3072 3072 3072 3074 3073 3072 3073 3073 3073 3073 3074 3077 3078 3078 3078 3081 3086 3088 3089 3087 3086 3087 3088
3134 3131 3129 3126 3123 3120 3118 3116 3113 3111 3109 3106 3104 3101 3099 3096 3093 3091 3089 3086 3084 3082 3080 3079 3077 3076 3075 3074 3073 3072 3071 3072 3072 3072 3071 3070 3070 3069 3069 3068 3067 3067 3066 3066 3066 3066 3067 3068 3068 3068 3068 3068 3068 3068 3069 3069 3068 3068 3068 3066 3066 3067 3067 3067 3068 3069 3069 3069 3070 3070 3068 3068 3069 3069 3069 3072 3074 3076 3075 3075 3077 3082 3084 3086 3086 3085 3087 3088
3133 3130 3127 3125 3122 3119 3117 3114 3112 3110 3107 3104 3102 3099 3097 3094 3091 3089 3087 3084 3082 3080 3078 3077 3076 3075 3075 3073 3073 3072 3071 3070 3071 3071 3071 3070 3069 3068 3068 3068 3067 3067 3066 3066 3066 3065 3066 3066 3066 3066 3066 3066 3066 3067 3066 3066 3066 3066 3066 3065 3064 3064 3064 3065 3066 3067 3067 3067 3067 3067 3064 3063 3065 3065 3067 3070 3072 3074 3074 3073 3074 3077 3080 3083 3084 3083 3085 3087
3132 3129 3126 3124 3121 3118 3115 3113 3111 3108 3106 3103 3100 3097 3094 3092 3089 3087 3085 3082 3079 3078 3077 3076 3075 3075 3075 3074 3073 3073 3071 3070 3070 3070 3070 3069 3068 3067 3067 3066 3067 3066 3066 3066 3065 3065 3065 3065 3065 3065 3065 3065 3065 3065 3064 3064 3064 3064 3065 3063 3062 3061 3060 3062 3064 3065 3065 3065 3066 3065 3061 3059 3061 3064 3066 3069 3071 3072 3072 3071 3071 3074 3077 3080 3081 3081 3083 3085
3131 3128 3125 3122 3120 3117 3114 3112 3109 3107 3104 3101 3098 3095 3092 3089 3087 3085 3082 3080 3078 3076 3076 3075 3075 3075 3075 3074 3074 3073 3072 3071 3071 3070 3070 3069 3068 3067 3067 3066 3066 3066 3066 3066 3065 3065 3065 3065 3065 3064 3064 3064 3063 3063 3062 3063 3062 3062 3062 3061 3061 3060 3058 3060 3062 3063 3063 3063 3065 3064 3059 3055 3058 3062 3064 3067 3070 3070 3069 3069 3069 3071 3074 3077 3079 3079 3080 3083
3130 3127 3124 3121 3119 3116 3113 3110 3108 3105 3103 3100 3096 3093 3091 3088 3085 3083 3080 3078 3077 3075 3075 3074 3075 3075 3075 3074 3073 3072 3072 3071 3071 3071 3070 3069 3069 3068 3067 3066 3066 3066 3066 3065 3065 3065 3065 3065 3065 3064 3064 3063 3062 3062 3061 3061 3061 3061 3061 3059 3059 3058 3056 3058 3060 3061 3061 3061 3063 3062 3058 3054 3055 3059 3060 3063 3067 3068 3067 3066 3067 3068 3070 3073 3075 3077 3078 3081
3129 3126 3123 3120 3117 3115 3112 3109 3106 3104 3101 3099 3095 3092 3089 3086 3084 3082 3079 3077 3076 3074 3074 3074 3074 3074 3074 3074 3073 3072 3071 3071 3071 3070 3070 3069 3068 3067 3066 3064 3064 3065 3065 3065 3064 3063 3064 3064 3064 3063 3063 3062 3062 3062 3060 3059 3059 3060 3060 3058 3057 3057 3056 3056 3057 3059 3059 3059 3059 3059 3056 3052 3053 3055 3056 3058 3063 3064 3063 3063 3064 3064 3066 3070 3072 3074 3076 3078
3128 3125 3122 3119 3116 3113 3111 3108 3105 3102 3100 3097 3095 3091 3088 3086 3083 3081 3078 3076 3075 3074 3073 3073 3074 3074 3074 3074 3073 3072 3071 3070 3070 3069 3069 3068 3067 3066 3065 3064 3064 3064 3064 3063 3062 3062 3062 3062 3062 3062 3062 3061 3061 3061 3060 3059 3059 3059 3059 3057 3056 3056 3056 3055 3054 3055 3057 3057 3056 3057 3055 3050 3051 3053 3053 3055 3059 3059 3059 3060 3061 3062 3063 3065 3068 3070 3073 3075
3127 3124 3121 3118 3115 3112 3109 3106 3103 3101 3098 3095 3093 3091 3088 3085 3082 3080 3078 3076 3074 3074 3073 3073 3074 3074 3074 3074 3072 3071 3069 3069 3069 3069 3069 3068 3066 3065 3065 3065 3065 3064 3063 3062 3061 3061 3061 3061 3061 3061 3060 3060 3060 3060 3059 3058 3058 3058 3057 3056 3055 3055 3054 3054 3053 3053 3055 3056 3055 3056 3053 3049 3049 3051 3051 3053 3055 3056 3056 3056 3058 3061 3060 3061 3064 3066 3069 3072
3126 3123 3120 3117 3114 3111 3108 3105 3102 3099 3097 3094 3091 3089 3087 3086 3083 3079 3078 3076 3075 3074 3073 3074 3074 3075 3075 3073 3072 3071 3068 3068 3069 3068 3068 3067 3065 3065 3064 3064 3064 3064 3063 3062 3061 3060 3060 3060 3059 3058 3058 3058 3059 3059 3058 3058 3058 3057 3057 3056 3055 3053 3052 3052 3051 3051 3055 3054 3053 3053 3050 3047 3047 3047 3048 3050 3052 3053 3053 3054 3055 3058 3058 3058 3060 3063 3065 3068
3125 3122 3119 3116 3113 3110 3107 3104 3100 3097 3095 3093 3090 3088 3086 3084 3082 3080 3079 3078 3076 3075 3074 3075 3076 3076 3075 3074 3073 3071 3068 3068 3069 3068 3067 3066 3065 3064 3064 3064 3063 3063 3062 3062 3061 3060 3059 3058 3056 3055 3055 3056 3057 3057 3057 3057 3056 3056 3055 3054 3053 3051 3049 3050 3049 3049 3054 3053 3050 3050 3047 3044 3044 3043 3044 3046 3048 3051 3051 3051 3052 3054 3056 3056 3057 3060 3062 3064
3125 3122 3119 3116 3112 3109 3106 3103 3099 3096 3093 3091 3088 3085 3083 3080 3079 3080 3079 3078 3077 3076 3076 3076 3076 3076 3075 3073 3072 3069 3067 3068 3069 3069 3068 3067 3066 3064 3063 3063 3062 3061 3060 3061 3060 3059 3058 3055 3053 3054 3054 3055 3055 3055 3055 3055 3055 3054 3053 3052 3051 3049 3047 3048 3048 3048 3052 3051 3047 3047 3044 3042 3042 3039 3038 3041 3045 3047 3048 3048 3048 3050 3053 3054 3055 3057 3059 3061
3124 3121 3118 3115 3112 3108 3105 3102 3099 3096 3093 3090 3088 3085 3082 3080 3079 3079 3078 3078 3077 3077 3076 3076 3076 3075 3074 3072 3070 3068 3068 3069 3069 3069 3068 3066 3066 3064 3063 3062 3060 3059 3059 3059 3058 3057 3055 3051 3051 3053 3054 3054 3053 3053 3053 3053 3053 3052 3051 3050 3047 3047 3046 3044 3044 3047 3049 3048 3044 3042 3040 3038 3039 3038 3037 3039 3042 3045 3046 3046 3046 3047 3049 3052 3054 3055 3057 3059
3123 3120 3117 3114 3111 3108 3104 3100 3097 3095 3092 3090 3087 3085 3083 3082 3080 3079 3078 3078 3078 3077 3077 3077 3076 3076 3074 3072 3071 3071 3071 3070 3068 3067 3066 3065 3064 3063 3062 3060 3059 3057 3056 3056 3054 3053 3051 3049 3050 3052 3052 3051 3051 3050 3050 3050 3049 3049 3048 3047 3045 3046 3047 3043 3041 3043 3045 3044 3042 3040 3036 3034 3036 3036 3036 3038 3039 3041 3042 3042 3043 3044 3045 3048 3051 3053 3055 3057
3122 3119 3117 3114 3111 3107 3104 3099 3096 3094 3092 3089 3086 3084 3082 3082 3081 3080 3079 3079 3078 3078 3078 3077 3077 3076 3075 3074 3073 3072 3071 3070 3068 3066 3065 3064 3064 3062 3059 3057 3056 3055 3053 3051 3050 3049 3048 3047 3049 3049 3048 3048 3047 3047 3047 3046 3045 3045 3045 3045 3043 3044 3046 3044 3041 3041 3040 3039 3040 3039 3034 3030 3032 3033 3033 3035 3037 3037 3038 3038 3039 3040 3041 3044 3047 3050 3053 3054
3122 3119 3116 3113 3110 3107 3103 3099 3096 3093 3091 3088 3086 3084 3083 3082 3081 3080 3079 3079 3079 3079 3078 3078 3077 3076 3076 3075 3074 3072 3070 3069 3068 3066 3064 3062 3061 3060 3058 3056 3054 3051 3050 3048 3047 3046 3045 3046 3047 3046 3045 3045 3044 3043 3043 3043 3041 3041 3042 3042 3042 3043 3043 3043 3043 3042 3039 3036 3037 3039 3035 3028 3028 3030 3030 3031 3033 3034 3035 3036 3036 3037 3038 3040 3042 3046 3050 3052
3121 3118 3116 3113 3110 3107 3103 3100 3096 3093 3091 3088 3086 3085 3084 3082 3081 3081 3080 3079 3079 3079 3079 3078 3077 3076 3075 3074 3072 3070 3069 3068 3067 3065 3062 3060 3059 3057 3055 3054 3051 3048 3047 3046 3045 3043 3041 3042 3043 3042 3042 3042 3041 3040 3040 3041 3039 3038 3038 3039 3041 3041 3041 3040 3041 3042 3039 3035 3035 3038 3037 3030 3025 3025 3027 3029 3029 3030 3032 3033 3034 3035 3036 3037 3039 3042 3047 3050
3120 3117 3115 3113 3110 3107 3103 3099 3097 3094 3091 3089 3087 3086 3084 3082 3081 3080 3079 3079 3080 3080 3080 3079 3078 3077 3075 3074 3071 3069 3068 3068 3066 3063 3060 3057 3056 3055 3053 3051 3049 3046 3045 3044 3042 3039 3038 3038 3039 3040 3039 3039 3038 3037 3037 3039 3037 3035 3035 3037 3038 3038 3038 3038 3039 3039 3038 3035 3034 3035 3037 3033 3024 3021 3024 3027 3027 3027 3029 3030 3032 3033 3034 3035 3035 3038 3042 3046
3119 3116 3114 3112 3109 3107 3104 3100 3097 3094 3092 3090 3088 3086 3084 3083 3082 3081 3079 3081 3082 3081 3080 3079 3079 3077 3075 3073 3071 3069 3068 3066 3064 3062 3058 3055 3053 3052 3051 3049 3047 3045 3044 3042 3039 3037 3036 3036 3036 3037 3036 3035 3034 3034 3035 3035 3034 3033 3034 3035 3035 3036 3036 3036 3036 3036 3036 3036 3032 3030 3034 3033 3024 3018 3021 3024 3024 3024 3025 3026 3028 3030 3031 3032 3032 3033 3036 3041
3119 3116 3113 3110 3108 3106 3103 3100 3097 3094 3092 3090 3088 3086 3084 3083 3082 3080 3079 3082 3083 3081 3080 3079 3078 3076 3074 3072 3069 3068 3068 3065 3063 3061 3057 3054 3052 3051 3049 3047 3046 3044 3042 3040 3038 3036 3035 3034 3034 3034 3033 3032 3031 3031 3032 3031 3031 3031 3031 3032 3032 3033 3033 3033 3034 3033 3035 3035 3028 3024 3029 3031 3021 3014 3017 3021 3021 3021 3022 3023 3025 3026 3028 3029 3029 3030 3032 3035
3119 3115 3112 3110 3107 3104 3101 3099 3096 3094 3092 3090 3088 3086 3084 3084 3082 3080 3081 3083 3083 3081 3081 3079 3076 3075 3073 3070 3068 3067 3066 3065 3062 3059 3056 3053 3051 3050 3048 3046 3045 3043 3041 3039 3037 3034 3032 3031 3031 3030 3029 3029 3029 3029 3029 3028 3028 3028 3029 3029 3029 3030 3030 3031 3031 3031 3033 3030 3020 3017 3025 3029 3022 3012 3014 3018 3018 3019 3020 3020 3022 3023 3025 3026 3026 3027 3028 3030
3119 3116 3113 3110 3107 3104 3101 3098 3095 3093 3091 3089 3087 3085 3084 3084 3082 3082 3084 3085 3083 3081 3079 3077 3076 3075 3073 3071 3068 3067 3066 3064 3060 3057 3054 3052 3051 3049 3047 3046 3043 3040 3039 3037 3034 3031 3029 3028 3028 3028 3028 3028 3028 3028 3027 3026 3026 3026 3026 3027 3027 3028 3028 3028 3029 3029 3031 3023 3012 3014 3022 3026 3022 3012 3010 3014 3016 3017 3017 3017 3018 3019 3021 3022 3023 3024 3025 3026
3118 3116 3113 3110 3107 3104 3101 3098 3096 3093 3091 3089 3087 3085 3084 3083 3082 3084 3086 3084 3083 3082 3079 3077 3077 3075 3074 3072 3069 3067 3064 3062 3059 3056 3053 3050 3050 3048 3047 3045 3042 3039 3037 3035 3032 3029 3027 3027 3027 3027 3027 3027 3027 3026 3026 3024 3023 3024 3024 3025 3026 3027 3027 3027 3026 3026 3026 3017 3009 3014 3019 3020 3018 3011 3006 3009 3010 3011 3013 3013 3014 3015 3016 3018 3020 3021 3023 3024
3118 3116 3113 3110 3107 3105 3102 3099 3097 3094 3092 3090 3088 3086 3083 3082 3084 3087 3087 3084 3084 3083 3080 3079 3077 3075 3074 3071 3068 3066 3063 3060 3058 3056 3054 3051 3050 3048 3047 3046 3044 3041 3039 3035 3032 3029 3027 3027 3027 3027 3026 3026 3025 3025 3024 3023 3022 3022 3022 3023 3024 3026 3026 3025 3024 3024 3021 3013 3009 3014 3016 3014 3012 3007 3001 3001 3003 3006 3008 3009 3011 3012 3013 3014 3016 3018 3019 3021
3118 3116 3114 3111 3108 3105 3103 3100 3097 3095 3093 3090 3088 3085 3081 3083 3087 3088 3086 3085 3084 3083 3081 3079 3077 3075 3073 3070 3068 3066 3062 3059 3057 3056 3054 3052 3050 3048 3047 3046 3044 3042 3040 3037 3034 3032 3031 3029 3027 3027 3025 3024 3024 3023 3023 3022 3022 3021 3021 3022 3021 3021 3022 3021 3020 3020 3017 3012 3010 3011 3012 3007 3002 2998 2997 2997 2999 3001 3003 3004 3006 3008 3009 3010 3011 3013 3015 3016
3118 3115 3113 3111 3108 3106 3103 3100 3098 3095 3092 3090 3087 3084 3081 3085 3088 3087 3086 3085 3083 3082 3080 3079 3076 3074 3072 3071 3069 3066 3063 3060 3057 3056 3054 3051 3050 3048 3047 3045 3044 3042 3041 3038 3036 3035 3033 3030 3027 3026 3025 3024 3023 3022 3022 3022 3021 3020 3020 3020 3019 3017 3017 3016 3015 3014 3014 3012 3008 3006 3004 2999 2995 2994 2994 2995 2995 2996 2998 2999 3001 3002 3003 3006 3007 3008 3010 3012
3118 3115 3112 3110 3108 3106 3103 3100 3097 3095 3092 3090 3087 3084 3085 3089 3089 3088 3087 3086 3083 3081 3079 3078 3076 3074 3072 3070 3068 3066 3064 3061 3058 3055 3053 3052 3050 3048 3047 3045 3044 3043 3042 3040 3038 3037 3033 3028 3025 3025 3024 3023 3022 3021 3021 3021 3020 3019 3018 3017 3016 3015 3015 3014 3012 3010 3013 3011 3002 2998 2996 2993 2992 2991 2989 2991 2991 2991 2994 2994 2995 2997 2998 3001 3002 3004 3007 3008
3117 3115 3112 3109 3107 3104 3101 3099 3097 3094 3092 3090 3088 3087 3090 3091 3089 3088 3087 3085 3084 3082 3079 3077 3076 3075 3073 3071 3068 3065 3063 3060 3057 3055 3053 3051 3050 3048 3047 3046 3045 3044 3042 3040 3039 3038 3035 3026 3022 3024 3022 3020 3021 3019 3018 3019 3018 3017 3015 3014 3014 3014 3014 3013 3012 3010 3011 3008 2997 2992 2990 2988 2988 2985 2983 2986 2986 2985 2988 2990 2992 2994 2995 2996 2997 2999 3002 3004
3117 3115 3112 3109 3106 3103 3101 3099 3096 3094 3093 3091 3089 3090 3092 3091 3090 3088 3087 3085 3083 3081 3079 3078 3077 3076 3074 3072 3068 3065 3062 3059 3056 3054 3053 3051 3050 3049 3047 3046 3046 3044 3042 3040 3038 3037 3035 3026 3019 3021 3021 3018 3019 3018 3015 3015 3015 3013 3012 3012 3012 3012 3011 3011 3011 3009 3008 3007 2996 2988 2986 2983 2980 2978 2977 2979 2980 2980 2983 2985 2987 2989 2990 2992 2993 2995 2997 2998
3117 3114 3112 3109 3106 3103 3101 3099 3097 3095 3093 3091 3091 3092 3092 3091 3090 3088 3086 3085 3083 3080 3079 3079 3078 3076 3074 3072 3069 3065 3062 3059 3056 3055 3053 3052 3051 3049 3047 3046 3045 3044 3042 3040 3037 3035 3035 3029 3018 3016 3019 3017 3015 3014 3011 3010 3010 3010 3009 3010 3009 3008 3007 3006 3006 3003 3003 3003 2995 2989 2984 2975 2970 2973 2973 2974 2975 2976 2978 2979 2981 2984 2985 2987 2989 2990 2992 2994
3116 3114 3111 3108 3105 3103 3100 3099 3098 3095 3093 3091 3092 3093 3092 3091 3090 3088 3086 3084 3082 3080 3080 3079 3078 3076 3074 3072 3070 3065 3062 3059 3058 3056 3054 3053 3050 3047 3047 3046 3043 3042 3041 3040 3038 3034 3033 3030 3020 3013 3015 3015 3011 3009 3007 3005 3006 3006 3005 3005 3004 3004 3004 3002 3000 2997 2997 2996 2992 2989 2981 2965 2962 2969 2970 2969 2970 2971 2973 2975 2976 2979 2980 2982 2984 2986 2988 2989
3116 3114 3111 3109 3106 3103 3101 3100 3099 3096 3094 3093 3094 3093 3092 3091 3090 3088 3086 3084 3083 3081 3080 3079 3077 3076 3073 3071 3069 3066 3062 3060 3058 3057 3054 3053 3051 3048 3047 3045 3043 3041 3039 3037 3037 3034 3031 3027 3019 3012 3010 3010 3007 3005 3003 3000 3000 3000 2999 2999 2999 3000 3001 2999 2995 2992 2991 2990 2985 2985 2978 2959 2955 2963 2965 2965 2967 2967 2969 2972 2972 2975 2976 2977 2979 2981 2983 2984
3116 3113 3111 3110 3108 3105 3103 3102 3099 3097 3095 3094 3094 3093 3092 3091 3089 3087 3085 3084 3083 3081 3080 3079 3077 3075 3073 3070 3068 3066 3063 3060 3058 3057 3055 3053 3052 3050 3047 3045 3043 3041 3038 3035 3034 3032 3029 3024 3017 3010 3006 3005 3002 3000 2999 2997 2995 2995 2995 2993 2994 2995 2995 2994 2991 2987 2986 2984 2980 2983 2977 2956 2950 2958 2962 2963 2965 2965 2967 2968 2968 2970 2971 2973 2974 2976 2978 2980
3116 3114 3112 3110 3108 3106 3105 3102 3099 3097 3096 3095 3094 3093 3092 3090 3088 3087 3085 3084 3083 3081 3080 3078 3076 3074 3072 3070 3068 3066 3063 3060 3057 3057 3055 3052 3051 3049 3047 3045 3043 3040 3038 3035 3031 3029 3026 3021 3015 3007 3001 3000 2998 2995 2995 2994 2993 2992 2990 2989 2989 2988 2987 2987 2985 2984 2983 2978 2977 2982 2972 2949 2945 2955 2959 2961 2963 2963 2964 2964 2963 2965 2966 2968 2969 2970 2973 2976
3116 3114 3111 3109 3108 3106 3103 3100 3098 3097 3095 3094 3094 3093 3091 3089 3087 3086 3085 3083 3082 3081 3080 3078 3076 3074 3072 3070 3068 3066 3063 3060 3057 3055 3054 3052 3049 3048 3046 3044 3041 3039 3037 3034 3031 3029 3025 3020 3016 3009 3001 2996 2993 2991 2991 2990 2990 2988 2985 2984 2982 2981 2982 2982 2981 2983 2977 2968 2973 2979 2962 2941 2943 2951 2952 2956 2958 2958 2960 2961 2960 2961 2961 2961 2963 2964 2968 2971
3116 3114 3111 3109 3107 3105 3102 3099 3098 3097 3095 3094 3093 3092 3091 3089 3087 3086 3085 3084 3082 3081 3080 3078 3076 3074 3072 3070 3067 3065 3063 3061 3058 3055 3053 3051 3048 3047 3045 3042 3041 3039 3037 3035 3032 3029 3024 3019 3017 3013 3008 3002 2997 2993 2989 2987 2987 2984 2981 2980 2977 2976 2977 2976 2976 2978 2970 2962 2968 2967 2949 2937 2944 2948 2947 2949 2951 2950 2952 2954 2954 2955 2955 2955 2956 2958 2962 2966
3115 3114 3112 3110 3108 3106 3103 3101 3099 3097 3096 3094 3092 3092 3091 3089 3087 3086 3085 3083 3082 3081 3080 3078 3075 3072 3070 3068 3066 3064 3062 3060 3058 3055 3052 3050 3048 3046 3044 3042 3041 3040 3037 3035 3031 3027 3023 3018 3015 3013 3010 3006 3000 2993 2988 2986 2984 2981 2979 2977 2974 2973 2972 2971 2971 2968 2962 2961 2960 2951 2944 2941 2942 2944 2945 2944 2943 2943 2943 2944 2945 2946 2946 2948 2949 2951 2956 2960
3114 3112 3111 3109 3107 3106 3105 3103 3100 3098 3096 3094 3092 3092 3090 3088 3086 3085 3084 3083 3082 3080 3078 3077 3075 3072 3070 3067 3065 3062 3061 3059 3057 3055 3052 3050 3048 3047 3045 3044 3042 3040 3037 3035 3031 3027 3023 3017 3014 3011 3007 3003 2998 2992 2986 2984 2982 2978 2976 2974 2971 2970 2968 2967 2966 2960 2958 2961 2952 2942 2946 2944 2936 2937 2941 2940 2939 2938 2936 2936 2937 2937 2937 2939 2942 2945 2950 2956
3115 3112 3110 3108 3106 3105 3103 3102 3100 3098 3095 3094 3093 3092 3090 3088 3086 3084 3083 3082 3081 3080 3077 3075 3074 3073 3071 3068 3065 3062 3059 3057 3055 3054 3053 3051 3049 3047 3045 3044 3042 3039 3036 3034 3031 3027 3023 3018 3014 3010 3005 3001 2997 2991 2985 2982 2979 2977 2977 2974 2970 2968 2965 2963 2961 2956 2956 2957 2947 2940 2945 2942 2933 2934 2936 2935 2935 2933 2931 2931 2931 2931 2932 2934 2937 2941 2946 2952
3115 3113 3110 3108 3106 3105 3103 3101 3100 3097 3095 3094 3093 3091 3089 3087 3086 3085 3083 3081 3080 3079 3077 3074 3073 3072 3071 3068 3066 3063 3059 3057 3055 3054 3053 3051 3049 3048 3045 3043 3041 3039 3037 3034 3030 3027 3024 3019 3014 3010 3005 3000 2995 2990 2986 2982 2978 2975 2976 2975 2972 2968 2965 2962 2958 2953 2952 2950 2944 2941 2941 2937 2933 2932 2932 2931 2930 2928 2927 2927 2926 2927 2928 2931 2934 2939 2944 2950
3115 3113 3111 3110 3108 3106 3104 3102 3100 3098 3096 3095 3093 3091 3089 3087 3086 3085 3083 3081 3080 3078 3077 3074 3071 3071 3070 3068 3065 3063 3061 3059 3056 3054 3053 3052 3050 3049 3047 3044 3041 3039 3037 3033 3029 3027 3024 3019 3015 3011 3005 2998 2994 2989 2985 2981 2978 2976 2975 2973 2970 2966 2963 2960 2956 2951 2947 2945 2942 2940 2938 2934 2933 2931 2930 2929 2927 2925 2925 2924 2925 2927 2928 2931 2935 2938 2943 2949
3113 3112 3111 3109 3107 3106 3104 3102 3100 3099 3096 3094 3092 3090 3088 3087 3086 3084 3083 3082 3080 3078 3076 3073 3070 3068 3067 3066 3063 3061 3059 3058 3056 3055 3053 3052 3051 3050 3049 3046 3043 3040 3037 3033 3030 3028 3025 3020 3015 3011 3005 2999 2992 2987 2983 2980 2976 2973 2970 2967 2965 2964 2961 2959 2957 2953 2949 2945 2940 2938 2936 2934 2932 2931 2929 2928 2927 2927 2926 2925 2927 2930 2932 2935 2937 2940 2945 2949
3114 3112 3110 3108 3106 3105 3104 3101 3100 3098 3096 3093 3091 3090 3089 3088 3086 3084 3083 3082 3081 3079 3076 3074 3070 3067 3065 3062 3060 3058 3057 3056 3055 3054 3053 3052 3052 3051 3050 3047 3045 3042 3037 3034 3031 3028 3025 3021 3015 3012 3007 2999 2991 2987 2983 2975 2969 2969 2972 2971 2969 2966 2962 2959 2956 2952 2949 2946 2942 2940 2938 2935 2933 2931 2930 2930 2930 2929 2929 2929 2931 2933 2935 2937 2939 2942 2946 2949